Pellston, MI

8:39 PM EDT on October 17, 2017 (GMT -0400)
Pellston Regional Airport Of Emmet County

Weather History for KPLN - October, 2013

Change the Weather History Date:

Tuesday, October 8, 2013

  Actual Average Record
Temperature  
Mean Temperature 49 °F -  
Max Temperature 68 °F 57 °F 87 °F (2007)
Min Temperature 30 °F 38 °F 17 °F (2001)
Degree Days  
Heating Degree Days 16    
Moisture  
Dew Point 39 °F    
Average Humidity 74    
Maximum Humidity 96    
Minimum Humidity 40    
Precipitation  
Precipitation 0.00 in - - ()
Sea Level Pressure  
Sea Level Pressure 30.17 in    
Wind  
Wind Speed 2 mph (SSE)    
Max Wind Speed 12 mph    
Max Gust Speed -    
Visibility 10 miles    
Events      
Averages and records for this station are not official NWS values.
T = Trace of Precipitation, MM = Missing Value Source: NWS Daily Summary

Daily Weather History Graph

Daily Weather History Graph

Search for Another Location

Airport or City:

Trip Planner

Search our weather history database for the weather conditions in past years. The results will help you decide how hot, cold, wet, or windy it might be!

Date:

Astronomy

Oct. 08, 2013 Rise Set
Actual Time 7:46 AM EDT 7:05 PM EDT
Civil Twilight 7:17 AM EDT 7:35 PM EDT
Nautical Twilight 6:42 AM EDT 8:09 PM EDT
Astronomical Twilight 6:08 AM EDT 8:44 PM EDT
Moon 11:51 AM EDT (10/8) 9:30 PM EDT (10/8)
Length of Visible Light 12h 18m
Length of Day
11h 19m
Waxing Crescent, 16% of the Moon is Illuminated
Oct 8
Waxing Crescent
Oct 11
First Quarter
Oct 18
Full
Oct 26
Last Quarter
Nov 3
New

Hourly Weather History & Observations

Time (EDT) Temp. Dew Point Humidity Pressure Visibility Wind Dir Wind Speed Gust Speed Precip Events Conditions
12:54 AM 37.0 °F 35.1 °F 93% 30.09 in 10.0 mi Calm Calm - N/A   Clear
1:54 AM 34.0 °F 33.1 °F 96% 30.11 in 10.0 mi Calm Calm - N/A   Clear
2:54 AM 33.1 °F 30.9 °F 92% 30.12 in 10.0 mi Calm Calm - N/A   Clear
3:54 AM 30.9 °F 30.0 °F 96% 30.13 in 10.0 mi Calm Calm - N/A   Clear
4:54 AM 30.9 °F 30.0 °F 96% 30.15 in 10.0 mi Calm Calm - N/A   Clear
5:54 AM 30.9 °F 28.9 °F 92% 30.17 in 10.0 mi Calm Calm - N/A   Clear
6:54 AM 30.0 °F 28.9 °F 96% 30.18 in 10.0 mi Calm Calm - N/A   Clear
7:54 AM 30.0 °F 28.9 °F 96% 30.20 in 10.0 mi Calm Calm - N/A   Clear
8:54 AM 37.0 °F 34.0 °F 89% 30.21 in 10.0 mi Calm Calm - N/A   Clear
9:54 AM 48.0 °F 42.1 °F 80% 30.22 in 10.0 mi SE 3.5 mph - N/A   Clear
10:54 AM 55.9 °F 45.0 °F 67% 30.22 in 10.0 mi Variable 4.6 mph - N/A   Clear
11:54 AM 61.0 °F 42.1 °F 50% 30.22 in 10.0 mi SSE 6.9 mph - N/A   Clear
12:54 PM 63.0 °F 43.0 °F 48% 30.21 in 10.0 mi South 6.9 mph - N/A   Clear
1:54 PM 64.9 °F 44.1 °F 47% 30.20 in 10.0 mi SSW 11.5 mph - N/A   Clear
2:54 PM 66.0 °F 46.0 °F 48% 30.19 in 10.0 mi SW 10.4 mph - N/A   Clear
3:54 PM 66.9 °F 43.0 °F 42% 30.18 in 10.0 mi South 9.2 mph - N/A   Clear
4:54 PM 68.0 °F 44.1 °F 42% 30.17 in 10.0 mi SSE 6.9 mph - N/A   Clear
5:54 PM 66.9 °F 42.1 °F 40% 30.17 in 10.0 mi South 5.8 mph - N/A   Clear
6:54 PM 63.0 °F 44.1 °F 50% 30.16 in 10.0 mi SSE 4.6 mph - N/A   Clear
7:54 PM 51.1 °F 46.0 °F 83% 30.18 in 10.0 mi Calm Calm - N/A   Clear
8:54 PM 48.9 °F 46.9 °F 93% 30.18 in 10.0 mi Calm Calm - N/A   Clear
9:54 PM 54.0 °F 46.0 °F 75% 30.18 in 10.0 mi SSE 3.5 mph - N/A   Clear
10:54 PM 51.1 °F 46.0 °F 83% 30.18 in 10.0 mi SSE 5.8 mph - N/A   Clear
11:54 PM 51.1 °F 46.0 °F 83% 30.17 in 10.0 mi SE 6.9 mph - N/A   Clear